Location: Zagreb
(45.8000°N, 16.0000°E)
Time: 15:36:37
(UTC+02:00)

Vanguard 1 - Pass Details

Date: 13 August 2022
Orbit: 649 x 3832 km, 34.2° (Epoch: 25 September)

Event Time Altitude Azimuth Distance (km) Brightness Sun altitude
Rises 02:06:13 0° 184° (S) 4,996 - -27.7°
Reaches altitude 10° 02:10:34 10° 167° (SSE) 4,518 - -27.5°
Exits shadow 02:14:06 16° 150° (SSE) 4,416 13.0 -27.3°
Maximum altitude 02:18:47 19° 128° (SE) 4,665 13.3 -27.0°
Drops below altitude 10° 02:29:47 10° 92° (E) 6,286 14.4 -26.2°
Sets 02:37:39 0° 78° (ENE) 7,732 15.1 -25.7°
